TimeCDT,TemperatureF,Dew PointF,Humidity,Sea Level PressureIn,VisibilityMPH,Wind Direction,Wind SpeedMPH,Gust SpeedMPH,PrecipitationIn,Events,Conditions,WindDirDegrees,DateUTC
12:51 AM,73.0,60.1,64,29.96,10.0,NE,4.6,-,N/A,,Clear,40,2013-06-19 05:51:00
1:51 AM,71.1,61.0,70,29.96,10.0,NNE,4.6,-,N/A,,Clear,20,2013-06-19 06:51:00
2:51 AM,70.0,62.1,76,29.97,10.0,NE,6.9,-,N/A,,Clear,50,2013-06-19 07:51:00
3:51 AM,69.1,62.1,78,29.98,10.0,NE,4.6,-,N/A,,Clear,40,2013-06-19 08:51:00
4:51 AM,68.0,62.1,81,29.99,10.0,NNE,4.6,-,N/A,,Clear,30,2013-06-19 09:51:00
5:51 AM,66.9,62.1,84,30.01,9.0,Calm,Calm,-,N/A,,Scattered Clouds,0,2013-06-19 10:51:00
6:51 AM,66.9,62.1,84,30.02,8.0,NE,4.6,-,N/A,,Mostly Cloudy,40,2013-06-19 11:51:00
7:51 AM,69.1,62.1,78,30.04,10.0,Calm,Calm,-,N/A,,Mostly Cloudy,0,2013-06-19 12:51:00
8:51 AM,72.0,63.0,73,30.05,10.0,ENE,3.5,-,N/A,,Mostly Cloudy,60,2013-06-19 13:51:00
9:51 AM,77.0,63.0,62,30.06,10.0,Calm,Calm,-,N/A,,Mostly Cloudy,0,2013-06-19 14:51:00
10:51 AM,78.1,63.0,60,30.05,10.0,NE,6.9,-,N/A,,Scattered Clouds,50,2013-06-19 15:51:00
11:51 AM,80.1,62.1,54,30.05,10.0,Calm,Calm,-,N/A,,Scattered Clouds,0,2013-06-19 16:51:00
12:51 PM,82.0,62.1,51,30.04,10.0,NNE,5.8,-,N/A,,Scattered Clouds,30,2013-06-19 17:51:00
1:51 PM,82.0,60.1,47,30.02,10.0,ESE,4.6,-,N/A,,Scattered Clouds,120,2013-06-19 18:51:00
2:51 PM,84.0,62.1,47,30.02,10.0,Variable,6.9,-,N/A,,Mostly Cloudy,0,2013-06-19 19:51:00
3:51 PM,84.0,60.1,44,30.01,10.0,SSE,4.6,-,N/A,,Mostly Cloudy,160,2013-06-19 20:51:00
4:51 PM,84.9,57.9,40,30.01,10.0,Calm,Calm,-,N/A,,Mostly Cloudy,0,2013-06-19 21:51:00
5:51 PM,84.9,59.0,41,30.00,10.0,East,3.5,-,N/A,,Mostly Cloudy,90,2013-06-19 22:51:00
6:51 PM,84.0,59.0,43,30.00,10.0,ENE,5.8,-,N/A,,Mostly Cloudy,70,2013-06-19 23:51:00
7:51 PM,81.0,61.0,50,30.00,10.0,ENE,5.8,-,N/A,,Mostly Cloudy,70,2013-06-20 00:51:00
8:51 PM,81.0,60.1,49,30.00,10.0,ENE,3.5,-,N/A,,Mostly Cloudy,70,2013-06-20 01:51:00
9:51 PM,77.0,62.1,60,30.03,10.0,East,4.6,-,N/A,,Scattered Clouds,80,2013-06-20 02:51:00
10:51 PM,75.9,63.0,64,30.03,10.0,ESE,5.8,-,N/A,,Scattered Clouds,120,2013-06-20 03:51:00
11:51 PM,73.9,63.0,68,30.04,10.0,ESE,4.6,-,N/A,,Scattered Clouds,110,2013-06-20 04:51:00